User: anonymous   Login
Location: Palomar Mountain Lodge
(33.3110°N, 116.8495°W)
Time: 11:46:22
(UTC-08:00)
Language:

deb Kosmos-1763 - Orbit

View from above orbital plane
View from above orbital plane
View from above satellite
View from above satellite

Ground track
Ground track

The orbit data is extracted from the following two-line orbital elements,

1 16865U 86052C   18350.06458354  .00003861  00000-0  15215-3 0  9994
2 16865  74.0029 101.9017 0012162 309.5587  50.4538 15.25934116738413
Epoch (UTC): 16 December 2018 01:33:00
Eccentricity: 0.0012162
inclination: 74.0029°
perigee height: 479 km
apogee height: 496 km
right ascension of ascending node: 101.9017°
argument of perigee: 309.5587°
revolutions per day: 15.25934116
mean anomaly at epoch: 50.4538°
orbit number at epoch: 73841

The dashed part of the orbit path shows where the satellite is in the earth's shadow,  

DLR